Lid_Strength_Index
1 1 1 1 1 1 1 1 1 0 2 3 3 5 5 6 5 6 8 9 8 8
1 1 1 1 1 1 1 2 2 2 4 5 6 5 5 5 8 9 8 8 8 8
1 1 1 1 1 2 2 3 3 3 5 6 6 6 7 8 8 8 7 7 7 7
1 1 1 1 2 2 3 3 4 4 6 6 6 7 7 8 8 8 7 7 7 7
2 2 2 2 3 3 4 4 5 5 7 7 7 7 8 7 8 7 7 7 7 6
3 5 6 6 7 7 6 6 6 6 8 7 7 7 8 8 7 7 7 7 6 5
6 6 7 7 6 6 7 7 8 8 7 7 7 7 7 7 7 7 6 6 6 6
7 6 6 7 7 7 7 8 8 8 7 7 7 7 7 7 7 7 7 6 5 6
6 6 6 7 7 7 7 7 6 7 7 7 7 8 8 8 7 7 7 7 8 7
5 5 5 5 5 5 5 6 7 7 7 7 7 9 9 9 8 8 9 9 9 8
5 5 5 5 5 5 5 6 6 6 6 7 6 9 10 11 10 10 9 9 9 10
5 6 5 5 5 5 6 6 6 6 7 9 11 11 12 11 11 11 12 10 10 11
5 4 5 5 5 6 6 7 8 8 8 10 12 12 12 12 13 14 14 13 12 11
4 5 5 6 7 8 8 8 10 11 11 10 11 13 13 13 15 15 15 15 14 13